User: anonymous   Login
Location: Unspecified
(0.0000°N, 0.0000°E)
Time: 18:27:02
(UTC+01:00)
Language:

Cosmos 2237 Rocket - Orbit

View from above orbital plane
View from above orbital plane
View from above satellite
View from above satellite

Ground track
Ground track

The orbit data is extracted from the following two-line orbital elements,

1 22566U 93016B   17024.20064939  .00000272  00000-0  16526-3 0  9991
2 22566  71.0081   9.1595 0010807 340.6312  19.4398 14.14943181230908
Epoch (UTC): 24 January 2017 04:48:56
Eccentricity: 0.0010807
inclination: 71.0081°
perigee height: 835 km
apogee height: 850 km
right ascension of ascending node: 9.1595°
argument of perigee: 340.6312°
revolutions per day: 14.14943181
mean anomaly at epoch: 19.4398°
orbit number at epoch: 23090

The dashed part of the orbit path shows where the satellite is in the earth's shadow,  

DLR